Weather History for Alpena, MI

Change the Weather History Date:

Friday, June 6, 2014

  Actual Average Record
Temperature  
Mean Temperature 58 °F 59 °F  
Max Temperature 77 °F 72 °F 96 °F (1988)
Min Temperature 39 °F 47 °F 31 °F (1958)
Degree Days  
Heating Degree Days 7 7  
Month to date heating degree days 17 45  
Since 1 June heating degree days 17 45  
Since 1 July heating degree days 9070 8002  
Cooling Degree Days 0 1  
Month to date cooling degree days 14 6  
Year to date cooling degree days 19 19  
Since 1 June cooling degree days 14 6  
Growing Degree Days 8 (Base 50)    
Moisture  
Dew Point 43 °F    
Average Humidity 58    
Maximum Humidity 93    
Minimum Humidity 23    
Precipitation  
Precipitation 0.00 in 0.08 in 1.12 in (1930)
Month to date precipitation 0.35 0.52  
Year to date precipitation 11.85 10.42  
Sea Level Pressure  
Sea Level Pressure 29.99 in    
Wind  
Wind Speed 4 mph (SSE)    
Max Wind Speed 15 mph    
Max Gust Speed 18 mph    
Visibility 10 miles    
Events      
T = Trace of Precipitation, MM = Missing Value Source: NWS Daily Summary

Daily Weather History Graph

Daily Weather History Graph

Search for Another Location

Airport:

Trip Planner

Search our weather history database for the weather conditions in past years. The results will help you decide how hot, cold, wet, or windy it might be!

Date:

Astronomy

Jun. 06, 2014 Rise Set
Actual Time 5:48 AM EDT 9:18 PM EDT
Civil Twilight 5:11 AM EDT 9:54 PM EDT
Nautical Twilight 4:22 AM EDT 10:43 PM EDT
Astronomical Twilight 3:20 AM EDT 11:46 PM EDT
Moon 2:19 PM EDT (6/6) 1:57 AM EDT (6/6)
Length of Visible Light 16h 43m
Length of Day
15h 29m
First Quarter, 58% of the Moon is Illuminated
Jun 6
First Quarter
Jun 13
Full
Jun 19
Last Quarter
Jun 27
New
Jul 5
First Quarter

Hourly Weather History & Observations

Time (EDT) Temp. Windchill Dew Point Humidity Pressure Visibility Wind Dir Wind Speed Gust Speed Precip Events Conditions
12:54 AM 53.1 °F - 37.9 °F 57% 29.97 in 10.0 mi SW 3.5 mph - N/A   Clear
1:54 AM 45.0 °F - 39.0 °F 80% 29.96 in 10.0 mi Calm Calm - N/A   Clear
2:54 AM 45.0 °F - 41.0 °F 86% 29.97 in 10.0 mi Calm Calm - N/A   Clear
3:54 AM 45.0 °F - 39.9 °F 82% 29.97 in 10.0 mi Calm Calm - N/A   Clear
4:54 AM 43.0 °F - 39.0 °F 86% 29.98 in 10.0 mi Calm Calm - N/A   Clear
5:54 AM 42.1 °F 40.2 °F 39.0 °F 89% 29.99 in 10.0 mi West 3.5 mph - N/A   Clear
6:54 AM 42.1 °F - 39.9 °F 92% 30.01 in 10.0 mi Calm Calm - N/A   Clear
7:54 AM 48.0 °F - 43.0 °F 83% 30.01 in 10.0 mi Calm Calm - N/A   Clear
8:54 AM 59.0 °F - 45.0 °F 60% 30.01 in 10.0 mi SSW 3.5 mph - N/A   Clear
9:54 AM 66.0 °F - 39.9 °F 38% 30.01 in 10.0 mi SSW 5.8 mph - N/A   Clear
10:54 AM 71.6 °F - 39.2 °F 31% 29.99 in 10.0 mi Variable 4.6 mph - N/A   Clear
11:54 AM 72.0 °F - 37.9 °F 29% 30.00 in 10.0 mi Variable 4.6 mph - N/A   Scattered Clouds
12:54 PM 75.9 °F - 36.0 °F 23% 29.98 in 10.0 mi West 3.5 mph - N/A   Clear
1:54 PM 75.9 °F - 44.1 °F 32% 29.97 in 10.0 mi East 9.2 mph - N/A   Clear
2:54 PM 77.0 °F - 44.1 °F 31% 29.97 in 10.0 mi ESE 10.4 mph - N/A   Clear
3:54 PM 75.9 °F - 45.0 °F 33% 29.97 in 10.0 mi East 11.5 mph - N/A   Clear
4:54 PM 75.0 °F - 43.0 °F 32% 29.97 in 10.0 mi East 12.7 mph - N/A   Clear
5:54 PM 75.0 °F - 45.0 °F 34% 29.96 in 10.0 mi ESE 8.1 mph - N/A   Clear
6:54 PM 73.0 °F - 46.9 °F 39% 29.97 in 10.0 mi East 4.6 mph - N/A   Clear
7:54 PM 70.0 °F - 48.9 °F 47% 29.98 in 10.0 mi SE 4.6 mph - N/A   Clear
8:54 PM 64.9 °F - 52.0 °F 63% 29.99 in 10.0 mi Calm Calm - N/A   Clear
9:54 PM 60.1 °F - 52.0 °F 75% 30.00 in 10.0 mi Calm Calm - N/A   Clear
10:54 PM 57.0 °F - 52.0 °F 83% 30.01 in 10.0 mi Calm Calm - N/A   Clear
11:54 PM 54.0 °F - 51.1 °F 90% 30.01 in 10.0 mi Calm Calm - N/A   Clear